Wetterdaten: Montag, 22.08.2016
Datum Zeit Temp. A. Aussentemp2 Feuchte A. Luftdruck Regen Wind Richtung Richtung Sonnenschein Helligkeit Solar
22.08.2016 00:04 16,4 C 18,0 C 80 % 1020,7 hPa 0,0 l/m 19,0 km/h (3 Bft) SW45 225 0 min 0 lux 0 W/m
22.08.2016 00:09 16,3 C 18,0 C 81 % 1020,7 hPa 0,0 l/m 16,1 km/h (3 Bft) SW22.5 230 0 min 0 lux 0 W/m
22.08.2016 00:14 16,2 C 18,0 C 81 % 1020,7 hPa 0,0 l/m 18,6 km/h (3 Bft) SW45 225 0 min 0 lux 0 W/m
22.08.2016 00:19 16,2 C 18,0 C 81 % 1020,7 hPa 0,0 l/m 17,9 km/h (3 Bft) SW22.5 225 0 min 0 lux 0 W/m
22.08.2016 00:24 16,1 C 17,9 C 81 % 1020,7 hPa 0,0 l/m 20,6 km/h (4 Bft) SW22.5 230 0 min 0 lux 0 W/m
22.08.2016 00:29 16,0 C 17,9 C 81 % 1020,7 hPa 0,0 l/m 19,0 km/h (3 Bft) SW22.5 225 0 min 0 lux 0 W/m
22.08.2016 00:34 16,0 C 18,0 C 81 % 1020,7 hPa 0,0 l/m 19,5 km/h (3 Bft) SW45 225 0 min 0 lux 0 W/m
22.08.2016 00:39 16,0 C 17,9 C 81 % 1020,7 hPa 0,0 l/m 16,1 km/h (3 Bft) SW22.5 225 0 min 0 lux 0 W/m
22.08.2016 00:44 16,0 C 17,9 C 81 % 1020,7 hPa 0,0 l/m 18,2 km/h (3 Bft) SW45 225 0 min 0 lux 0 W/m
22.08.2016 00:49 16,0 C 17,9 C 82 % 1020,7 hPa 0,0 l/m 16,5 km/h (3 Bft) SW22.5 225 0 min 0 lux 0 W/m
22.08.2016 00:54 15,9 C 17,9 C 82 % 1020,7 hPa 0,0 l/m 16,0 km/h (3 Bft) SW22.5 225 0 min 0 lux 0 W/m
22.08.2016 00:58 16,0 C 17,9 C 82 % 1020,7 hPa 0,0 l/m 17,2 km/h (3 Bft) SW22.5 225 0 min 0 lux 0 W/m
22.08.2016 01:04 15,9 C 18,0 C 81 % 1020,7 hPa 0,0 l/m 15,0 km/h (3 Bft) SW22.5 230 0 min 0 lux 0 W/m
22.08.2016 01:09 15,8 C 17,9 C 82 % 1020,7 hPa 0,0 l/m 15,3 km/h (3 Bft) SW22.5 225 0 min 0 lux 0 W/m
22.08.2016 01:14 15,8 C 17,9 C 82 % 1020,7 hPa 0,0 l/m 19,6 km/h (3 Bft) SW22.5 230 0 min 0 lux 0 W/m
22.08.2016 01:19 15,8 C 17,8 C 82 % 1020,7 hPa 0,0 l/m 13,8 km/h (3 Bft) SW22.5 225 0 min 0 lux 0 W/m
22.08.2016 01:24 15,8 C 17,9 C 82 % 1020,7 hPa 0,0 l/m 15,2 km/h (3 Bft) SW45 220 0 min 0 lux 0 W/m
22.08.2016 01:29 15,7 C 17,8 C 81 % 1020,7 hPa 0,0 l/m 16,3 km/h (3 Bft) SW22.5 225 0 min 0 lux 0 W/m
22.08.2016 01:34 15,6 C 17,8 C 81 % 1020,7 hPa 0,0 l/m 13,0 km/h (3 Bft) W-SW22.5 240 0 min 0 lux 0 W/m
22.08.2016 01:39 15,5 C 17,8 C 82 % 1020,7 hPa 0,0 l/m 18,8 km/h (3 Bft) SW22.5 230 0 min 0 lux 0 W/m
22.08.2016 01:44 15,5 C 17,8 C 82 % 1020,7 hPa 0,0 l/m 12,2 km/h (2 Bft) SW45 220 0 min 0 lux 0 W/m
22.08.2016 01:48 15,5 C 17,7 C 82 % 1020,7 hPa 0,0 l/m 12,0 km/h (2 Bft) SW22.5 230 0 min 0 lux 0 W/m
22.08.2016 01:54 15,5 C 17,8 C 81 % 1020,7 hPa 0,0 l/m 15,0 km/h (3 Bft) SW22.5 230 0 min 0 lux 0 W/m
22.08.2016 01:59 15,5 C 17,7 C 81 % 1020,7 hPa 0,0 l/m 15,7 km/h (3 Bft) SW45 220 0 min 0 lux 0 W/m
22.08.2016 02:04 15,5 C 17,7 C 81 % 1021,7 hPa 0,0 l/m 16,0 km/h (3 Bft) SW22.5 225 0 min 0 lux 0 W/m
22.08.2016 02:08 15,5 C 17,7 C 81 % 1021,7 hPa 0,0 l/m 18,6 km/h (3 Bft) SW22.5 230 0 min 0 lux 0 W/m
22.08.2016 02:14 15,4 C 17,7 C 81 % 1021,7 hPa 0,0 l/m 18,6 km/h (3 Bft) SW22.5 230 0 min 0 lux 0 W/m
22.08.2016 02:19 15,4 C 17,7 C 81 % 1021,7 hPa 0,0 l/m 14,3 km/h (3 Bft) SW22.5 225 0 min 0 lux 0 W/m
22.08.2016 02:24 15,4 C 17,6 C 81 % 1021,7 hPa 0,0 l/m 20,0 km/h (4 Bft) SW22.5 225 0 min 0 lux 0 W/m
22.08.2016 02:29 15,4 C 17,6 C 80 % 1021,7 hPa 0,0 l/m 20,1 km/h (4 Bft) SW45 225 0 min 0 lux 0 W/m
22.08.2016 02:34 15,4 C 17,8 C 80 % 1021,7 hPa 0,0 l/m 13,9 km/h (3 Bft) SW45 215 0 min 0 lux 0 W/m
22.08.2016 02:39 15,3 C 17,8 C 80 % 1021,7 hPa 0,0 l/m 16,2 km/h (3 Bft) SW45 215 0 min 0 lux 0 W/m
22.08.2016 02:44 15,3 C 17,5 C 80 % 1021,7 hPa 0,0 l/m 19,0 km/h (3 Bft) SW22.5 225 0 min 0 lux 0 W/m
22.08.2016 02:49 15,2 C 17,6 C 80 % 1021,7 hPa 0,0 l/m 16,1 km/h (3 Bft) SW22.5 230 0 min 0 lux 0 W/m
22.08.2016 02:54 15,2 C 17,5 C 80 % 1021,7 hPa 0,0 l/m 19,4 km/h (3 Bft) SW22.5 225 0 min 0 lux 0 W/m
22.08.2016 02:59 15,3 C 17,6 C 80 % 1021,7 hPa 0,0 l/m 19,8 km/h (3 Bft) SW45 215 0 min 0 lux 0 W/m
22.08.2016 03:04 15,3 C 17,5 C 80 % 1021,7 hPa 0,0 l/m 19,0 km/h (3 Bft) SW22.5 215 0 min 0 lux 0 W/m
22.08.2016 03:09 15,3 C 17,6 C 80 % 1021,7 hPa 0,0 l/m 19,1 km/h (3 Bft) SW22.5 215 0 min 0 lux 0 W/m
22.08.2016 03:14 15,2 C 17,5 C 79 % 1021,7 hPa 0,0 l/m 15,8 km/h (3 Bft) SW22.5 225 0 min 0 lux 0 W/m
22.08.2016 03:19 15,2 C 17,6 C 79 % 1021,7 hPa 0,0 l/m 23,8 km/h (4 Bft) SW45 220 0 min 0 lux 0 W/m
22.08.2016 03:23 15,1 C 17,6 C 79 % 1021,7 hPa 0,0 l/m 11,5 km/h (2 Bft) S22.5 190 0 min 0 lux 0 W/m
22.08.2016 03:29 15,0 C 17,8 C 80 % 1021,7 hPa 0,0 l/m 12,5 km/h (2 Bft) S22.5 190 0 min 0 lux 0 W/m
22.08.2016 03:34 15,0 C 17,8 C 80 % 1021,7 hPa 0,0 l/m 10,0 km/h (2 Bft) S 180 0 min 0 lux 0 W/m
22.08.2016 03:39 15,0 C 17,8 C 80 % 1021,7 hPa 0,0 l/m 8,8 km/h (2 Bft) S22.5 190 0 min 0 lux 0 W/m
22.08.2016 03:44 15,0 C 17,8 C 80 % 1021,7 hPa 0,0 l/m 8,9 km/h (2 Bft) S22.5 180 0 min 0 lux 0 W/m
22.08.2016 03:49 14,9 C 17,6 C 80 % 1021,8 hPa 0,0 l/m 8,7 km/h (2 Bft) S22.5 175 0 min 0 lux 0 W/m
22.08.2016 03:54 14,8 C 17,7 C 80 % 1021,8 hPa 0,0 l/m 9,7 km/h (2 Bft) S22.5 180 0 min 0 lux 0 W/m
22.08.2016 03:59 14,8 C 17,8 C 80 % 1021,8 hPa 0,0 l/m 9,6 km/h (2 Bft) S22.5 180 0 min 0 lux 0 W/m
22.08.2016 04:04 14,7 C 17,6 C 81 % 1021,8 hPa 0,0 l/m 9,6 km/h (2 Bft) S22.5 175 0 min 0 lux 0 W/m
22.08.2016 04:08 14,7 C 17,7 C 81 % 1021,8 hPa 0,0 l/m 10,1 km/h (2 Bft) S22.5 185 0 min 0 lux 0 W/m
22.08.2016 04:14 14,7 C 17,6 C 81 % 1021,8 hPa 0,0 l/m 11,7 km/h (2 Bft) S22.5 180 0 min 0 lux 0 W/m
22.08.2016 04:19 14,7 C 17,5 C 81 % 1021,8 hPa 0,0 l/m 8,4 km/h (2 Bft) S22.5 180 0 min 0 lux 0 W/m
22.08.2016 04:24 14,7 C 17,6 C 80 % 1021,8 hPa 0,0 l/m 9,5 km/h (2 Bft) S22.5 180 0 min 0 lux 0 W/m
22.08.2016 04:29 14,7 C 17,6 C 80 % 1021,8 hPa 0,0 l/m 12,1 km/h (2 Bft) S22.5 180 0 min 0 lux 0 W/m
22.08.2016 04:34 14,7 C 17,4 C 80 % 1021,8 hPa 0,0 l/m 12,1 km/h (2 Bft) S22.5 180 0 min 0 lux 0 W/m
22.08.2016 04:39 14,8 C 17,5 C 80 % 1021,8 hPa 0,0 l/m 16,5 km/h (3 Bft) S22.5 190 0 min 0 lux 0 W/m
22.08.2016 04:44 14,8 C 17,5 C 80 % 1021,8 hPa 0,0 l/m 11,8 km/h (2 Bft) S22.5 190 0 min 0 lux 0 W/m
22.08.2016 04:49 14,8 C 17,3 C 80 % 1021,8 hPa 0,0 l/m 10,5 km/h (2 Bft) S45 185 0 min 0 lux 0 W/m
22.08.2016 04:54 14,8 C 17,4 C 80 % 1021,8 hPa 0,0 l/m 11,5 km/h (2 Bft) S22.5 180 0 min 0 lux 0 W/m
22.08.2016 04:58 14,8 C 17,4 C 79 % 1021,8 hPa 0,0 l/m 12,7 km/h (3 Bft) S22.5 185 0 min 0 lux 0 W/m
22.08.2016 05:04 14,8 C 17,6 C 80 % 1021,8 hPa 0,0 l/m 8,1 km/h (2 Bft) S22.5 190 0 min 0 lux 0 W/m
22.08.2016 05:09 14,8 C 17,6 C 80 % 1021,8 hPa 0,0 l/m 9,6 km/h (2 Bft) S22.5 175 0 min 0 lux 0 W/m
22.08.2016 05:14 14,8 C 17,6 C 80 % 1021,8 hPa 0,0 l/m 12,4 km/h (2 Bft) S22.5 175 0 min 0 lux 0 W/m
22.08.2016 05:18 14,8 C 17,6 C 80 % 1021,8 hPa 0,0 l/m 13,3 km/h (3 Bft) S-SW22.5 195 0 min 0 lux 0 W/m
22.08.2016 05:24 14,8 C 17,4 C 80 % 1021,8 hPa 0,0 l/m 12,1 km/h (2 Bft) S22.5 185 0 min 0 lux 0 W/m
22.08.2016 05:29 14,8 C 17,3 C 79 % 1021,8 hPa 0,0 l/m 17,6 km/h (3 Bft) S-SW45 195 0 min 0 lux 0 W/m
22.08.2016 05:34 14,8 C 17,3 C 79 % 1021,8 hPa 0,0 l/m 14,5 km/h (3 Bft) S45 185 0 min 0 lux 0 W/m
22.08.2016 05:39 14,8 C 17,5 C 79 % 1021,8 hPa 0,0 l/m 13,1 km/h (3 Bft) S22.5 185 0 min 0 lux 0 W/m
22.08.2016 05:44 14,8 C 17,5 C 79 % 1021,8 hPa 0,0 l/m 13,7 km/h (3 Bft) S22.5 185 0 min 0 lux 0 W/m
22.08.2016 05:49 14,8 C 17,4 C 79 % 1021,8 hPa 0,0 l/m 14,8 km/h (3 Bft) S22.5 185 0 min 0 lux 0 W/m
22.08.2016 05:54 14,8 C 17,2 C 79 % 1021,8 hPa 0,0 l/m 13,0 km/h (3 Bft) S22.5 185 0 min 0 lux 0 W/m
22.08.2016 05:59 14,9 C 17,5 C 79 % 1021,8 hPa 0,0 l/m 15,1 km/h (3 Bft) S22.5 180 0 min 0 lux 0 W/m
22.08.2016 06:04 14,9 C 17,4 C 80 % 1021,8 hPa 0,0 l/m 11,2 km/h (2 Bft) S22.5 185 0 min 0 lux 0 W/m
22.08.2016 06:09 14,8 C 17,2 C 80 % 1021,8 hPa 0,0 l/m 13,5 km/h (3 Bft) S22.5 185 0 min 0 lux 0 W/m
22.08.2016 06:14 15,0 C 17,4 C 80 % 1021,7 hPa 0,0 l/m 11,2 km/h (2 Bft) S22.5 170 0 min 0 lux 0 W/m
22.08.2016 06:19 14,9 C 17,4 C 80 % 1021,8 hPa 0,0 l/m 12,1 km/h (2 Bft) S22.5 180 0 min 34 lux 0 W/m
22.08.2016 06:24 14,9 C 17,4 C 80 % 1021,8 hPa 0,0 l/m 9,8 km/h (2 Bft) S22.5 185 0 min 72 lux 0 W/m
22.08.2016 06:29 14,8 C 17,3 C 81 % 1021,8 hPa 0,0 l/m 14,4 km/h (3 Bft) S22.5 175 0 min 78 lux 0 W/m
22.08.2016 06:34 14,9 C 17,5 C 81 % 1021,8 hPa 0,0 l/m 11,9 km/h (2 Bft) S22.5 170 0 min 126 lux 0 W/m
22.08.2016 06:39 14,9 C 17,5 C 81 % 1021,8 hPa 0,0 l/m 9,2 km/h (2 Bft) S22.5 170 0 min 261 lux 2 W/m
22.08.2016 06:44 14,9 C 17,5 C 81 % 1021,8 hPa 0,0 l/m 9,0 km/h (2 Bft) S22.5 170 0 min 302 lux 2 W/m
22.08.2016 06:49 15,0 C 17,5 C 81 % 1021,7 hPa 0,0 l/m 9,9 km/h (2 Bft) S-SO 160 0 min 375 lux 3 W/m
22.08.2016 06:54 15,0 C 17,5 C 81 % 1021,7 hPa 0,0 l/m 11,3 km/h (2 Bft) S22.5 170 0 min 449 lux 3 W/m
22.08.2016 06:58 15,0 C 17,6 C 81 % 1021,7 hPa 0,0 l/m 9,7 km/h (2 Bft) S-SO 165 0 min 624 lux 4 W/m
22.08.2016 07:04 14,9 C 17,5 C 81 % 1021,8 hPa 0,0 l/m 14,0 km/h (3 Bft) S22.5 185 0 min 694 lux 5 W/m
22.08.2016 07:09 15,0 C 17,2 C 81 % 1021,7 hPa 0,0 l/m 10,8 km/h (2 Bft) S22.5 180 0 min 710 lux 5 W/m
22.08.2016 07:14 15,0 C 17,2 C 81 % 1021,7 hPa 0,0 l/m 12,7 km/h (3 Bft) S22.5 175 0 min 1,21 klux 8 W/m
22.08.2016 07:18 15,0 C 17,4 C 81 % 1021,7 hPa 0,0 l/m 13,3 km/h (3 Bft) S22.5 190 0 min 2,12 klux 15 W/m
22.08.2016 07:24 15,0 C 17,2 C 81 % 1021,7 hPa 0,0 l/m 14,8 km/h (3 Bft) S22.5 180 0 min 2,64 klux 18 W/m
22.08.2016 07:29 15,0 C 17,5 C 81 % 1021,7 hPa 0,0 l/m 13,6 km/h (3 Bft) S22.5 190 0 min 3,03 klux 21 W/m
22.08.2016 07:34 15,0 C 17,2 C 81 % 1021,7 hPa 0,0 l/m 15,0 km/h (3 Bft) S22.5 190 0 min 2,71 klux 19 W/m
22.08.2016 07:39 15,0 C 17,2 C 81 % 1021,7 hPa 0,0 l/m 20,1 km/h (4 Bft) S-SW45 195 0 min 2,31 klux 16 W/m
22.08.2016 07:44 15,2 C 17,4 C 81 % 1021,7 hPa 0,0 l/m 14,6 km/h (3 Bft) S22.5 190 0 min 1,81 klux 12 W/m
22.08.2016 07:49 15,2 C 17,1 C 81 % 1021,7 hPa 0,0 l/m 17,3 km/h (3 Bft) S45 185 0 min 2,26 klux 15 W/m
22.08.2016 07:54 15,2 C 17,4 C 81 % 1021,7 hPa 0,0 l/m 16,6 km/h (3 Bft) S45 190 0 min 3,08 klux 21 W/m
22.08.2016 07:59 15,2 C 17,3 C 81 % 1021,7 hPa 0,0 l/m 16,6 km/h (3 Bft) S45 190 0 min 3,03 klux 21 W/m
22.08.2016 08:04 15,2 C 17,3 C 81 % 1021,7 hPa 0,0 l/m 16,0 km/h (3 Bft) S45 190 0 min 2,87 klux 20 W/m
22.08.2016 08:09 15,2 C 17,2 C 81 % 1022,7 hPa 0,0 l/m 13,1 km/h (3 Bft) S22.5 185 0 min 2,40 klux 16 W/m
22.08.2016 08:14 15,2 C 17,2 C 82 % 1022,7 hPa 0,0 l/m 15,2 km/h (3 Bft) S-SW45 195 0 min 3,50 klux 24 W/m
22.08.2016 08:19 15,1 C 17,4 C 82 % 1022,8 hPa 0,0 l/m 13,5 km/h (3 Bft) S45 190 0 min 4,18 klux 29 W/m
22.08.2016 08:24 15,1 C 17,3 C 82 % 1022,8 hPa 0,1 l/m 14,9 km/h (3 Bft) S45 185 0 min 4,55 klux 31 W/m
22.08.2016 08:29 15,1 C 17,3 C 83 % 1022,8 hPa 0,0 l/m 5,9 km/h (2 Bft) S22.5 185 0 min 5,13 klux 35 W/m
22.08.2016 08:34 15,1 C 16,9 C 83 % 1022,8 hPa 0,2 l/m 13,5 km/h (3 Bft) S22.5 180 0 min 4,67 klux 32 W/m
22.08.2016 08:39 15,0 C 16,8 C 84 % 1022,8 hPa 0,1 l/m 13,1 km/h (3 Bft) S22.5 185 0 min 4,53 klux 31 W/m
22.08.2016 08:44 15,0 C 16,1 C 84 % 1022,8 hPa 0,1 l/m 15,6 km/h (3 Bft) S22.5 180 0 min 7,87 klux 54 W/m
22.08.2016 08:49 15,0 C 16,4 C 84 % 1022,8 hPa 0,1 l/m 14,6 km/h (3 Bft) S22.5 175 0 min 12,3 klux 84 W/m
22.08.2016 08:54 15,1 C 16,2 C 85 % 1022,8 hPa 0,0 l/m 15,1 km/h (3 Bft) S22.5 175 0 min 11,5 klux 79 W/m
22.08.2016 08:58 15,2 C 16,4 C 85 % 1022,7 hPa 0,0 l/m 17,3 km/h (3 Bft) S45 185 0 min 9,7 klux 66 W/m
22.08.2016 09:04 15,1 C 16,3 C 85 % 1022,8 hPa 0,1 l/m 16,7 km/h (3 Bft) S45 180 0 min 10,6 klux 73 W/m
22.08.2016 09:09 15,2 C 16,4 C 86 % 1022,7 hPa 0,0 l/m 14,1 km/h (3 Bft) S22.5 180 0 min 8,52 klux 58 W/m
22.08.2016 09:14 15,1 C 16,4 C 86 % 1022,8 hPa 0,0 l/m 14,9 km/h (3 Bft) S45 185 0 min 7,06 klux 48 W/m
22.08.2016 09:18 15,0 C 16,2 C 86 % 1022,8 hPa 0,0 l/m 16,5 km/h (3 Bft) S-SW45 205 0 min 7,38 klux 50 W/m
22.08.2016 09:24 15,0 C 16,1 C 86 % 1022,8 hPa 0,1 l/m 16,5 km/h (3 Bft) S22.5 190 0 min 10,8 klux 74 W/m
22.08.2016 09:29 15,0 C 16,4 C 86 % 1022,8 hPa 0,0 l/m 17,1 km/h (3 Bft) S-SW22.5 195 0 min 10,8 klux 74 W/m
22.08.2016 09:34 15,1 C 16,1 C 87 % 1022,8 hPa 0,0 l/m 22,3 km/h (4 Bft) S45 185 0 min 12,1 klux 83 W/m
22.08.2016 09:39 15,1 C 16,4 C 87 % 1022,8 hPa 0,0 l/m 18,3 km/h (3 Bft) S-SW22.5 195 0 min 13,8 klux 94 W/m
22.08.2016 09:43 15,2 C 16,4 C 87 % 1022,7 hPa 0,0 l/m 20,1 km/h (4 Bft) S22.5 185 0 min 13,5 klux 92 W/m
22.08.2016 09:49 15,2 C 16,2 C 87 % 1022,7 hPa 0,0 l/m 16,1 km/h (3 Bft) S-SW45 195 0 min 10,5 klux 72 W/m
22.08.2016 09:54 15,3 C 16,3 C 87 % 1022,7 hPa 0,0 l/m 15,9 km/h (3 Bft) S22.5 190 0 min 11,3 klux 77 W/m
22.08.2016 09:59 15,2 C 16,3 C 87 % 1022,7 hPa 0,0 l/m 20,9 km/h (4 Bft) S-SW45 200 0 min 11,0 klux 75 W/m
22.08.2016 10:04 15,3 C 16,2 C 87 % 1022,7 hPa 0,0 l/m 17,0 km/h (3 Bft) S-SW22.5 195 0 min 12,6 klux 86 W/m
22.08.2016 10:09 15,3 C 16,2 C 87 % 1022,7 hPa 0,0 l/m 16,4 km/h (3 Bft) S-SW22.5 200 0 min 9,8 klux 67 W/m
22.08.2016 10:14 15,4 C 16,3 C 87 % 1022,7 hPa 0,0 l/m 16,8 km/h (3 Bft) S-SW45 200 0 min 8,08 klux 55 W/m
22.08.2016 10:19 15,4 C 16,4 C 87 % 1022,7 hPa 0,0 l/m 16,9 km/h (3 Bft) S-SW22.5 200 0 min 7,51 klux 51 W/m
22.08.2016 10:24 15,4 C 16,4 C 87 % 1022,7 hPa 0,0 l/m 16,7 km/h (3 Bft) S-SW45 195 0 min 9,6 klux 66 W/m
22.08.2016 10:29 15,4 C 16,2 C 88 % 1022,7 hPa 0,0 l/m 14,9 km/h (3 Bft) S-SW22.5 200 0 min 8,82 klux 60 W/m
22.08.2016 10:34 15,5 C 16,4 C 88 % 1022,7 hPa 0,0 l/m 12,8 km/h (3 Bft) S45 185 0 min 9,2 klux 63 W/m
22.08.2016 10:39 15,6 C 16,4 C 88 % 1022,7 hPa 0,0 l/m 16,0 km/h (3 Bft) S45 190 0 min 7,87 klux 54 W/m
22.08.2016 10:44 15,6 C 16,4 C 88 % 1022,7 hPa 0,0 l/m 15,6 km/h (3 Bft) S-SW45 200 0 min 6,29 klux 43 W/m
22.08.2016 10:49 15,6 C 16,5 C 88 % 1022,7 hPa 0,0 l/m 13,6 km/h (3 Bft) S22.5 190 0 min 7,12 klux 49 W/m
22.08.2016 10:53 15,8 C 16,5 C 88 % 1022,7 hPa 0,0 l/m 19,0 km/h (3 Bft) S-SW45 200 0 min 7,72 klux 53 W/m
22.08.2016 10:59 15,8 C 16,5 C 88 % 1022,7 hPa 0,0 l/m 16,5 km/h (3 Bft) S-SW22.5 205 0 min 8,14 klux 56 W/m
22.08.2016 11:04 15,9 C 16,5 C 88 % 1022,7 hPa 0,0 l/m 16,0 km/h (3 Bft) S-SW45 205 0 min 10,7 klux 73 W/m
22.08.2016 11:09 16,0 C 16,8 C 88 % 1022,7 hPa 0,0 l/m 13,8 km/h (3 Bft) S-SW22.5 200 0 min 10,4 klux 71 W/m
22.08.2016 11:14 16,0 C 16,6 C 88 % 1022,7 hPa 0,0 l/m 17,7 km/h (3 Bft) S-SW22.5 205 0 min 9,2 klux 63 W/m
22.08.2016 11:19 16,1 C 16,7 C 88 % 1022,7 hPa 0,0 l/m 13,2 km/h (3 Bft) S-SW22.5 195 0 min 13,1 klux 90 W/m
22.08.2016 11:24 16,2 C 16,8 C 88 % 1022,7 hPa 0,0 l/m 18,9 km/h (3 Bft) S-SW45 200 0 min 13,9 klux 95 W/m
22.08.2016 11:29 16,3 C 16,9 C 88 % 1022,7 hPa 0,0 l/m 15,3 km/h (3 Bft) S-SW45 205 0 min 12,4 klux 85 W/m
22.08.2016 11:34 16,4 C 16,9 C 87 % 1022,7 hPa 0,0 l/m 15,3 km/h (3 Bft) S-SW45 205 0 min 12,0 klux 82 W/m
22.08.2016 11:38 16,5 C 16,8 C 87 % 1022,7 hPa 0,0 l/m 19,1 km/h (3 Bft) SW22.5 220 0 min 10,5 klux 72 W/m
22.08.2016 11:44 16,5 C 16,8 C 87 % 1023,7 hPa 0,0 l/m 16,2 km/h (3 Bft) SW45 215 0 min 8,43 klux 58 W/m
22.08.2016 11:49 16,5 C 16,8 C 87 % 1022,7 hPa 0,0 l/m 17,7 km/h (3 Bft) S-SW45 195 0 min 12,4 klux 85 W/m
22.08.2016 11:54 16,6 C 16,8 C 86 % 1022,7 hPa 0,0 l/m 19,9 km/h (4 Bft) S-SW22.5 210 0 min 13,4 klux 92 W/m
22.08.2016 11:59 16,7 C 16,8 C 87 % 1022,7 hPa 0,0 l/m 15,0 km/h (3 Bft) SW22.5 220 0 min 12,7 klux 87 W/m
22.08.2016 12:04 16,8 C 16,8 C 87 % 1022,7 hPa 0,0 l/m 17,5 km/h (3 Bft) SW45 215 0 min 11,4 klux 78 W/m
22.08.2016 12:09 16,9 C 16,8 C 87 % 1022,7 hPa 0,0 l/m 18,4 km/h (3 Bft) SW22.5 215 0 min 12,0 klux 82 W/m
22.08.2016 12:14 17,0 C 16,8 C 86 % 1022,7 hPa 0,0 l/m 18,1 km/h (3 Bft) S-SW45 210 0 min 18,7 klux 128 W/m
22.08.2016 12:18 17,1 C 16,8 C 86 % 1022,7 hPa 0,0 l/m 21,3 km/h (4 Bft) S-SW45 210 0 min 14,9 klux 102 W/m
22.08.2016 12:24 17,2 C 16,8 C 86 % 1022,7 hPa 0,0 l/m 16,9 km/h (3 Bft) S-SW22.5 210 0 min 13,4 klux 92 W/m
22.08.2016 12:29 17,3 C 16,8 C 86 % 1022,7 hPa 0,0 l/m 24,1 km/h (4 Bft) SW45 230 0 min 8,16 klux 56 W/m
22.08.2016 12:34 17,3 C 16,8 C 85 % 1023,7 hPa 0,0 l/m 20,2 km/h (4 Bft) SW45 225 0 min 8,74 klux 60 W/m
22.08.2016 12:39 17,3 C 16,8 C 85 % 1023,7 hPa 0,0 l/m 22,1 km/h (4 Bft) SW45 220 0 min 11,7 klux 80 W/m
22.08.2016 12:44 17,3 C 16,8 C 84 % 1023,7 hPa 0,0 l/m 25,6 km/h (4 Bft) SW45 230 0 min 10,2 klux 70 W/m
22.08.2016 12:49 17,4 C 16,8 C 84 % 1023,7 hPa 0,0 l/m 24,4 km/h (4 Bft) SW45 230 0 min 13,4 klux 92 W/m
22.08.2016 12:54 17,6 C 16,8 C 84 % 1023,7 hPa 0,1 l/m 15,6 km/h (3 Bft) SW45 225 0 min 14,0 klux 96 W/m
22.08.2016 12:59 17,6 C 16,8 C 83 % 1023,7 hPa 0,0 l/m 17,1 km/h (3 Bft) SW45 225 0 min 13,7 klux 94 W/m
22.08.2016 13:04 17,7 C 16,8 C 83 % 1023,7 hPa 0,0 l/m 18,6 km/h (3 Bft) SW22.5 225 0 min 12,6 klux 86 W/m
22.08.2016 13:09 17,8 C 16,8 C 83 % 1023,7 hPa 0,0 l/m 20,6 km/h (4 Bft) SW45 225 0 min 13,8 klux 94 W/m
22.08.2016 13:14 17,8 C 16,8 C 82 % 1023,7 hPa 0,0 l/m 19,1 km/h (3 Bft) SW22.5 230 0 min 14,6 klux 100 W/m
22.08.2016 13:19 18,0 C 16,8 C 83 % 1023,7 hPa 0,0 l/m 20,4 km/h (4 Bft) SW22.5 230 0 min 11,9 klux 81 W/m
22.08.2016 13:24 18,0 C 16,8 C 82 % 1023,7 hPa 0,0 l/m 17,0 km/h (3 Bft) SW67.5 220 0 min 13,2 klux 90 W/m
22.08.2016 13:29 18,0 C 17,7 C 82 % 1023,7 hPa 0,0 l/m 17,3 km/h (3 Bft) SW45 215 0 min 12,3 klux 84 W/m
22.08.2016 13:34 18,2 C 17,8 C 82 % 1023,7 hPa 0,0 l/m 20,0 km/h (4 Bft) SW45 220 0 min 16,0 klux 109 W/m
22.08.2016 13:39 18,2 C 17,8 C 82 % 1023,7 hPa 0,0 l/m 18,9 km/h (3 Bft) SW45 225 0 min 13,2 klux 90 W/m
22.08.2016 13:44 18,3 C 17,8 C 81 % 1023,7 hPa 0,0 l/m 16,3 km/h (3 Bft) SW22.5 230 0 min 12,4 klux 85 W/m
22.08.2016 13:49 18,3 C 17,8 C 81 % 1023,7 hPa 0,0 l/m 17,5 km/h (3 Bft) SW22.5 220 0 min 10,3 klux 70 W/m
22.08.2016 13:54 18,4 C 17,8 C 81 % 1023,7 hPa 0,0 l/m 17,1 km/h (3 Bft) SW45 225 0 min 11,4 klux 78 W/m
22.08.2016 13:58 18,4 C 17,9 C 81 % 1023,7 hPa 0,0 l/m 18,1 km/h (3 Bft) SW45 225 0 min 13,9 klux 95 W/m
22.08.2016 14:04 18,5 C 17,9 C 81 % 1023,7 hPa 0,0 l/m 13,4 km/h (3 Bft) SW22.5 225 0 min 14,5 klux 99 W/m
22.08.2016 14:09 18,6 C 17,9 C 80 % 1023,7 hPa 0,0 l/m 17,2 km/h (3 Bft) SW22.5 225 0 min 13,6 klux 93 W/m
22.08.2016 14:14 18,7 C 17,9 C 80 % 1023,7 hPa 0,0 l/m 15,1 km/h (3 Bft) SW45 220 0 min 11,3 klux 77 W/m
22.08.2016 14:18 18,7 C 17,9 C 80 % 1023,7 hPa 0,0 l/m 17,6 km/h (3 Bft) SW22.5 215 0 min 11,7 klux 80 W/m
22.08.2016 14:24 18,7 C 17,9 C 80 % 1023,7 hPa 0,0 l/m 17,0 km/h (3 Bft) SW22.5 225 0 min 14,7 klux 101 W/m
22.08.2016 14:29 19,0 C 17,9 C 80 % 1023,7 hPa 0,0 l/m 14,5 km/h (3 Bft) SW22.5 220 0 min 23,0 klux 157 W/m
22.08.2016 14:34 19,1 C 17,9 C 79 % 1023,7 hPa 0,0 l/m 13,8 km/h (3 Bft) SW45 215 0 min 16,6 klux 114 W/m
22.08.2016 14:39 19,2 C 17,9 C 79 % 1023,7 hPa 0,0 l/m 13,8 km/h (3 Bft) SW22.5 215 0 min 14,4 klux 98 W/m
22.08.2016 14:43 19,1 C 17,9 C 78 % 1023,7 hPa 0,0 l/m 15,3 km/h (3 Bft) S-SW45 205 0 min 16,0 klux 109 W/m
22.08.2016 14:49 19,2 C 17,9 C 78 % 1023,7 hPa 0,0 l/m 17,9 km/h (3 Bft) SW45 225 0 min 20,5 klux 140 W/m
22.08.2016 14:54 19,3 C 17,9 C 78 % 1023,7 hPa 0,0 l/m 19,7 km/h (3 Bft) SW45 220 0 min 18,1 klux 124 W/m
22.08.2016 14:59 19,4 C 17,9 C 77 % 1023,7 hPa 0,0 l/m 14,8 km/h (3 Bft) SW45 225 0 min 14,6 klux 100 W/m
22.08.2016 15:04 19,5 C 17,9 C 77 % 1023,7 hPa 0,0 l/m 10,1 km/h (2 Bft) SW22.5 220 0 min 14,6 klux 100 W/m
22.08.2016 15:09 19,6 C 17,9 C 77 % 1023,7 hPa 0,0 l/m 15,8 km/h (3 Bft) SW22.5 225 0 min 16,7 klux 114 W/m
22.08.2016 15:14 19,7 C 17,9 C 76 % 1023,7 hPa 0,0 l/m 13,1 km/h (3 Bft) SW45 225 0 min 16,4 klux 112 W/m
22.08.2016 15:19 19,8 C 17,9 C 76 % 1023,7 hPa 0,0 l/m 13,3 km/h (3 Bft) SW45 220 0 min 15,3 klux 105 W/m
22.08.2016 15:24 19,9 C 17,9 C 76 % 1023,7 hPa 0,0 l/m 18,1 km/h (3 Bft) SW45 220 0 min 14,2 klux 97 W/m
22.08.2016 15:28 19,9 C 17,9 C 75 % 1023,7 hPa 0,0 l/m 15,8 km/h (3 Bft) SW22.5 220 0 min 20,2 klux 138 W/m
22.08.2016 15:34 20,2 C 17,9 C 75 % 1023,7 hPa 0,0 l/m 11,5 km/h (2 Bft) SW45 225 0 min 23,4 klux 160 W/m
22.08.2016 15:39 20,3 C 17,9 C 74 % 1023,7 hPa 0,0 l/m 14,4 km/h (3 Bft) SW45 215 0 min 19,2 klux 131 W/m
22.08.2016 15:44 20,3 C 17,9 C 74 % 1023,7 hPa 0,0 l/m 21,6 km/h (4 Bft) SW22.5 225 0 min 30,3 klux 207 W/m
22.08.2016 15:49 20,6 C 17,9 C 74 % 1023,7 hPa 0,0 l/m 14,3 km/h (3 Bft) SW22.5 225 0 min 29,6 klux 202 W/m
22.08.2016 15:54 20,8 C 17,9 C 73 % 1023,7 hPa 0,0 l/m 14,4 km/h (3 Bft) SW45 225 0 min 24,3 klux 166 W/m
22.08.2016 15:59 21,0 C 17,9 C 73 % 1023,7 hPa 0,0 l/m 15,3 km/h (3 Bft) SW45 225 0 min 28,6 klux 196 W/m
22.08.2016 16:04 21,2 C 17,9 C 73 % 1023,7 hPa 0,0 l/m 14,5 km/h (3 Bft) SW45 235 0 min 28,5 klux 195 W/m
22.08.2016 16:09 21,2 C 17,9 C 72 % 1023,7 hPa 0,0 l/m 18,4 km/h (3 Bft) S-SW22.5 210 0 min 37,8 klux 259 W/m
22.08.2016 16:13 21,4 C 17,9 C 72 % 1023,7 hPa 0,0 l/m 14,5 km/h (3 Bft) SW22.5 225 4 min 62,2 klux 425 W/m
22.08.2016 16:19 21,6 C 20,0 C 71 % 1023,7 hPa 0,0 l/m 12,8 km/h (3 Bft) W-SW45 240 0 min 34,0 klux 233 W/m
22.08.2016 16:24 21,7 C 20,0 C 70 % 1023,7 hPa 0,0 l/m 15,8 km/h (3 Bft) SW45 225 0 min 28,5 klux 195 W/m
22.08.2016 16:29 21,7 C 20,0 C 70 % 1023,7 hPa 0,0 l/m 15,8 km/h (3 Bft) SW45 225 0 min 29,8 klux 204 W/m
22.08.2016 16:34 21,8 C 20,1 C 70 % 1023,7 hPa 0,0 l/m 20,0 km/h (4 Bft) SW22.5 230 0 min 33,6 klux 230 W/m
22.08.2016 16:38 21,9 C 20,1 C 69 % 1023,7 hPa 0,0 l/m 16,0 km/h (3 Bft) SW45 230 0 min 27,9 klux 191 W/m
22.08.2016 16:44 22,0 C 20,2 C 68 % 1023,7 hPa 0,0 l/m 17,3 km/h (3 Bft) SW45 225 0 min 27,2 klux 186 W/m
22.08.2016 16:49 21,8 C 20,2 C 68 % 1023,7 hPa 0,0 l/m 20,2 km/h (4 Bft) SW45 230 0 min 22,0 klux 150 W/m
22.08.2016 16:54 21,7 C 20,2 C 68 % 1023,7 hPa 0,0 l/m 21,0 km/h (4 Bft) SW45 230 0 min 22,3 klux 153 W/m
22.08.2016 16:59 22,0 C 20,4 C 69 % 1023,7 hPa 0,0 l/m 16,0 km/h (3 Bft) SW45 220 0 min 29,2 klux 200 W/m
22.08.2016 17:04 22,0 C 20,4 C 68 % 1023,7 hPa 0,0 l/m 16,3 km/h (3 Bft) SW45 215 0 min 23,4 klux 160 W/m
22.08.2016 17:09 22,0 C 20,4 C 67 % 1023,7 hPa 0,0 l/m 20,5 km/h (4 Bft) SW45 225 0 min 21,7 klux 148 W/m
22.08.2016 17:14 22,0 C 20,4 C 67 % 1023,7 hPa 0,0 l/m 24,2 km/h (4 Bft) S-SW22.5 210 0 min 30,0 klux 205 W/m
22.08.2016 17:19 22,2 C 20,4 C 68 % 1023,7 hPa 0,0 l/m 20,5 km/h (4 Bft) W-SW22.5 240 0 min 37,4 klux 256 W/m
22.08.2016 17:23 22,5 C 21,1 C 66 % 1023,7 hPa 0,0 l/m 20,0 km/h (4 Bft) SW67.5 225 0 min 36,6 klux 250 W/m
22.08.2016 17:29 23,0 C 21,3 C 66 % 1023,7 hPa 0,0 l/m 22,1 km/h (4 Bft) SW45 220 6 min 50,6 klux 346 W/m
22.08.2016 17:34 23,4 C 21,7 C 64 % 1023,6 hPa 0,0 l/m 23,8 km/h (4 Bft) W-SW45 245 5 min 52,9 klux 362 W/m
22.08.2016 17:39 23,4 C 21,4 C 64 % 1023,6 hPa 0,0 l/m 17,5 km/h (3 Bft) W-SW67.5 245 0 min 22,9 klux 157 W/m
22.08.2016 17:44 23,1 C 21,5 C 64 % 1023,7 hPa 0,0 l/m 22,6 km/h (4 Bft) W-SW22.5 240 0 min 21,7 klux 148 W/m
22.08.2016 17:49 23,0 C 21,3 C 65 % 1023,7 hPa 0,0 l/m 20,8 km/h (4 Bft) W-SW45 245 0 min 22,8 klux 156 W/m
22.08.2016 17:54 22,9 C 21,3 C 64 % 1023,7 hPa 0,0 l/m 17,2 km/h (3 Bft) W-SW22.5 240 0 min 16,1 klux 110 W/m
22.08.2016 17:59 22,7 C 21,2 C 65 % 1023,7 hPa 0,0 l/m 23,0 km/h (4 Bft) W-SW45 240 0 min 16,6 klux 114 W/m
22.08.2016 18:04 22,8 C 21,4 C 65 % 1023,7 hPa 0,0 l/m 21,5 km/h (4 Bft) W-SW45 245 0 min 27,1 klux 185 W/m
22.08.2016 18:09 22,8 C 21,3 C 65 % 1023,7 hPa 0,0 l/m 20,2 km/h (4 Bft) SW22.5 230 0 min 22,5 klux 154 W/m
22.08.2016 18:14 23,0 C 21,4 C 64 % 1023,7 hPa 0,0 l/m 13,6 km/h (3 Bft) SW45 230 5 min 41,0 klux 280 W/m
22.08.2016 18:19 23,2 C 21,5 C 63 % 1023,7 hPa 0,0 l/m 11,2 km/h (2 Bft) SW22.5 220 5 min 31,7 klux 217 W/m
22.08.2016 18:24 23,3 C 21,5 C 63 % 1023,7 hPa 0,0 l/m 15,5 km/h (3 Bft) SW22.5 225 0 min 13,9 klux 95 W/m
22.08.2016 18:29 23,1 C 21,4 C 63 % 1023,7 hPa 0,0 l/m 20,2 km/h (4 Bft) SW45 220 0 min 12,0 klux 82 W/m
22.08.2016 18:34 22,8 C 21,6 C 63 % 1023,7 hPa 0,0 l/m 27,2 km/h (5 Bft) W-SW45 250 0 min 10,4 klux 71 W/m
22.08.2016 18:39 22,9 C 21,6 C 61 % 1023,7 hPa 0,0 l/m 21,3 km/h (4 Bft) SW45 230 5 min 24,0 klux 164 W/m
22.08.2016 18:44 23,3 C 22,0 C 60 % 1023,7 hPa 0,0 l/m 22,8 km/h (4 Bft) SW45 230 5 min 41,5 klux 284 W/m
22.08.2016 18:49 23,1 C 21,8 C 60 % 1023,7 hPa 0,0 l/m 25,9 km/h (4 Bft) W-SW22.5 245 5 min 28,5 klux 195 W/m
22.08.2016 18:54 22,9 C 21,2 C 61 % 1023,7 hPa 0,0 l/m 25,5 km/h (4 Bft) W-SW45 240 0 min 8,85 klux 61 W/m
22.08.2016 18:59 22,8 C 21,4 C 62 % 1023,7 hPa 0,0 l/m 17,1 km/h (3 Bft) W-SW45 240 0 min 10,8 klux 74 W/m
22.08.2016 19:04 22,9 C 20,8 C 61 % 1023,7 hPa 0,0 l/m 19,8 km/h (3 Bft) W-SW45 240 5 min 28,0 klux 192 W/m
22.08.2016 19:09 23,2 C 20,6 C 61 % 1023,7 hPa 0,0 l/m 18,7 km/h (3 Bft) SW22.5 230 5 min 26,4 klux 181 W/m
22.08.2016 19:14 23,4 C 20,7 C 61 % 1023,6 hPa 0,0 l/m 17,2 km/h (3 Bft) SW45 230 5 min 24,7 klux 169 W/m
22.08.2016 19:19 23,4 C 20,5 C 60 % 1023,6 hPa 0,0 l/m 18,9 km/h (3 Bft) SW22.5 230 5 min 22,8 klux 156 W/m
22.08.2016 19:24 23,5 C 20,4 C 60 % 1023,6 hPa 0,0 l/m 14,9 km/h (3 Bft) W-SW22.5 245 5 min 21,1 klux 144 W/m
22.08.2016 19:29 23,4 C 20,4 C 60 % 1023,6 hPa 0,0 l/m 11,8 km/h (2 Bft) W-SW22.5 250 5 min 20,4 klux 140 W/m
22.08.2016 19:34 23,4 C 20,3 C 60 % 1023,6 hPa 0,0 l/m 10,6 km/h (2 Bft) SW45 220 5 min 18,9 klux 129 W/m
22.08.2016 19:38 23,4 C 21,3 C 60 % 1023,6 hPa 0,0 l/m 12,2 km/h (2 Bft) SW22.5 230 4 min 17,6 klux 120 W/m
22.08.2016 19:44 23,2 C 21,3 C 60 % 1023,7 hPa 0,0 l/m 12,3 km/h (2 Bft) SW22.5 230 6 min 15,9 klux 109 W/m
22.08.2016 19:49 23,3 C 21,2 C 61 % 1023,7 hPa 0,0 l/m 10,0 km/h (2 Bft) SW22.5 225 5 min 14,5 klux 99 W/m
22.08.2016 19:54 23,3 C 21,2 C 60 % 1023,7 hPa 0,0 l/m 9,9 km/h (2 Bft) SW22.5 220 5 min 12,2 klux 83 W/m
22.08.2016 19:59 23,1 C 20,9 C 60 % 1023,7 hPa 0,0 l/m 10,5 km/h (2 Bft) SW22.5 215 5 min 10,1 klux 69 W/m
22.08.2016 20:04 23,0 C 20,9 C 61 % 1023,7 hPa 0,0 l/m 10,6 km/h (2 Bft) SW22.5 220 5 min 9,1 klux 62 W/m
22.08.2016 20:09 22,8 C 20,9 C 61 % 1023,7 hPa 0,0 l/m 9,2 km/h (2 Bft) SW22.5 220 5 min 6,80 klux 47 W/m
22.08.2016 20:14 22,6 C 20,7 C 62 % 1023,7 hPa 0,0 l/m 6,7 km/h (2 Bft) SW 225 5 min 4,93 klux 34 W/m
22.08.2016 20:19 22,4 C 20,7 C 62 % 1023,7 hPa 0,0 l/m 5,5 km/h (2 Bft) S-SW 210 0 min 1,88 klux 13 W/m
22.08.2016 20:24 21,9 C 20,2 C 62 % 1023,7 hPa 0,0 l/m 1,0 km/h (0 Bft) S-SW 205 0 min 1,67 klux 11 W/m
22.08.2016 20:29 21,5 C 20,1 C 63 % 1023,7 hPa 0,0 l/m 0,1 km/h (0 Bft) S-SW 205 5 min 1,29 klux 9 W/m
22.08.2016 20:34 21,0 C 20,1 C 64 % 1023,7 hPa 0,0 l/m 0,3 km/h (0 Bft) SW 215 0 min 962 lux 7 W/m
22.08.2016 20:39 20,8 C 19,8 C 64 % 1023,7 hPa 0,0 l/m 0,0 km/h (0 Bft) SW 215 0 min 683 lux 0 W/m
22.08.2016 20:44 20,5 C 19,8 C 65 % 1023,7 hPa 0,0 l/m 0,0 km/h (0 Bft) SW 215 0 min 440 lux 0 W/m
22.08.2016 20:49 20,0 C 19,7 C 66 % 1023,7 hPa 0,0 l/m 3,9 km/h (1 Bft) SW 220 0 min 257 lux 0 W/m
22.08.2016 20:54 19,9 C 19,7 C 67 % 1023,7 hPa 0,0 l/m 0,0 km/h (0 Bft) SW 220 0 min 129 lux 0 W/m
22.08.2016 20:59 19,8 C 19,7 C 68 % 1023,7 hPa 0,0 l/m 0,0 km/h (0 Bft) SW 220 0 min 48 lux 0 W/m
22.08.2016 21:03 19,5 C 19,6 C 68 % 1023,7 hPa 0,0 l/m 0,0 km/h (0 Bft) SW 220 0 min 34 lux 0 W/m
22.08.2016 21:09 19,3 C 19,6 C 68 % 1024,7 hPa 0,0 l/m 0,0 km/h (0 Bft) SW 220 0 min 16 lux 0 W/m
22.08.2016 21:14 19,1 C 19,5 C 69 % 1023,7 hPa 0,0 l/m 0,0 km/h (0 Bft) SW 220 0 min 11 lux 0 W/m
22.08.2016 21:19 18,9 C 19,5 C 70 % 1023,7 hPa 0,0 l/m 0,0 km/h (0 Bft) SW 220 0 min 2 lux 0 W/m
22.08.2016 21:24 18,9 C 19,4 C 70 % 1023,7 hPa 0,0 l/m 0,6 km/h (0 Bft) SW 220 0 min 0 lux 0 W/m
22.08.2016 21:29 18,8 C 19,5 C 72 % 1023,7 hPa 0,0 l/m 7,2 km/h (2 Bft) S 170 0 min 0 lux 0 W/m
22.08.2016 21:34 18,8 C 19,4 C 72 % 1023,7 hPa 0,0 l/m 4,9 km/h (1 Bft) S 170 0 min 0 lux 0 W/m
22.08.2016 21:39 18,8 C 19,5 C 73 % 1023,7 hPa 0,0 l/m 6,3 km/h (2 Bft) S 170 0 min 0 lux 0 W/m
22.08.2016 21:44 18,8 C 19,4 C 72 % 1024,7 hPa 0,0 l/m 5,2 km/h (1 Bft) S 170 0 min 0 lux 0 W/m
22.08.2016 21:49 18,7 C 19,4 C 72 % 1024,7 hPa 0,0 l/m 0,2 km/h (0 Bft) S 170 0 min 0 lux 0 W/m
22.08.2016 21:54 18,6 C 19,4 C 73 % 1023,7 hPa 0,0 l/m 1,8 km/h (1 Bft) S 170 0 min 0 lux 0 W/m
22.08.2016 21:59 18,4 C 19,3 C 73 % 1024,7 hPa 0,0 l/m 5,4 km/h (2 Bft) S-SO22.5 160 0 min 0 lux 0 W/m
22.08.2016 22:04 18,3 C 19,3 C 74 % 1024,7 hPa 0,0 l/m 0,8 km/h (0 Bft) SO 140 0 min 0 lux 0 W/m
22.08.2016 22:09 18,2 C 19,3 C 74 % 1023,7 hPa 0,0 l/m 0,1 km/h (0 Bft) SO 140 0 min 0 lux 0 W/m
22.08.2016 22:14 18,0 C 19,2 C 74 % 1024,7 hPa 0,0 l/m 1,0 km/h (0 Bft) SO 140 0 min 0 lux 0 W/m
22.08.2016 22:19 18,1 C 19,2 C 75 % 1024,7 hPa 0,0 l/m 6,2 km/h (2 Bft) S-SO 155 0 min 0 lux 0 W/m
22.08.2016 22:24 18,2 C 19,2 C 76 % 1024,7 hPa 0,0 l/m 8,4 km/h (2 Bft) SO22.5 145 0 min 0 lux 0 W/m
22.08.2016 22:28 18,2 C 19,2 C 75 % 1024,7 hPa 0,0 l/m 7,6 km/h (2 Bft) S-SO 150 0 min 0 lux 0 W/m
22.08.2016 22:34 18,2 C 19,2 C 76 % 1024,7 hPa 0,0 l/m 6,6 km/h (2 Bft) S-SO22.5 165 0 min 0 lux 0 W/m
22.08.2016 22:39 18,2 C 19,2 C 75 % 1024,7 hPa 0,0 l/m 5,8 km/h (2 Bft) S 170 0 min 0 lux 0 W/m
22.08.2016 22:44 18,2 C 19,2 C 75 % 1024,7 hPa 0,0 l/m 4,6 km/h (1 Bft) S 170 0 min 0 lux 0 W/m
22.08.2016 22:49 18,1 C 19,1 C 75 % 1024,7 hPa 0,0 l/m 5,4 km/h (2 Bft) S 170 0 min 0 lux 0 W/m
22.08.2016 22:53 18,0 C 19,1 C 75 % 1024,7 hPa 0,0 l/m 7,1 km/h (2 Bft) S 170 0 min 0 lux 0 W/m
22.08.2016 22:59 17,8 C 19,1 C 76 % 1024,7 hPa 0,0 l/m 5,7 km/h (2 Bft) S 170 0 min 0 lux 0 W/m
22.08.2016 23:04 17,7 C 19,0 C 76 % 1024,7 hPa 0,0 l/m 5,7 km/h (2 Bft) S 170 0 min 0 lux 0 W/m
22.08.2016 23:09 17,7 C 19,0 C 76 % 1024,7 hPa 0,0 l/m 4,3 km/h (1 Bft) S 170 0 min 0 lux 0 W/m
22.08.2016 23:14 17,6 C 19,0 C 77 % 1024,7 hPa 0,0 l/m 5,5 km/h (2 Bft) S 170 0 min 0 lux 0 W/m
22.08.2016 23:19 17,6 C 19,1 C 77 % 1024,7 hPa 0,0 l/m 7,4 km/h (2 Bft) S 170 0 min 0 lux 0 W/m
22.08.2016 23:24 17,5 C 19,0 C 77 % 1024,7 hPa 0,0 l/m 6,2 km/h (2 Bft) S 170 0 min 0 lux 0 W/m
22.08.2016 23:29 17,4 C 19,0 C 77 % 1024,7 hPa 0,0 l/m 4,2 km/h (1 Bft) S 170 0 min 0 lux 0 W/m
22.08.2016 23:34 17,2 C 18,9 C 77 % 1024,7 hPa 0,0 l/m 0,1 km/h (0 Bft) S 170 0 min 0 lux 0 W/m
22.08.2016 23:39 17,1 C 18,9 C 77 % 1024,7 hPa 0,0 l/m 0,6 km/h (0 Bft) S 170 0 min 0 lux 0 W/m
22.08.2016 23:44 17,0 C 18,9 C 78 % 1024,7 hPa 0,0 l/m 6,6 km/h (2 Bft) S 170 0 min 0 lux 0 W/m
22.08.2016 23:49 17,0 C 18,9 C 78 % 1024,7 hPa 0,0 l/m 7,8 km/h (2 Bft) S 170 0 min 0 lux 0 W/m
22.08.2016 23:54 17,0 C 19,0 C 78 % 1024,7 hPa 0,0 l/m 6,1 km/h (2 Bft) S 170 0 min 0 lux 0 W/m
22.08.2016 23:58 17,0 C 18,8 C 78 % 1024,7 hPa 0,0 l/m 6,1 km/h (2 Bft) S 170 0 min 0 lux 0 W/m
_ Min-Zeit 04:04 08:44 18:44 00:04 - 20:39 - - - - -
Minimum _ 14,7 C 16,1 C 60 % 1020,7 hPa - 0,0 km/h (0 Bft) - - - - -
_ Max-Zeit 19:24 18:44 10:29 23:44 08:34 18:34 - - 17:29 16:13 16:13
Maximum _ 23,5 C 22,0 C 88 % 1024,7 hPa 0,2 l/m 27,2 km/h
W-SW (5 Bft)
- - 6 min 62,2 klux 425 W/m
Durchschnitt _ 17,7 C 18,2 C 77 % 1022,9 hPa #1,1 l/m 13,9 km/h (3 Bft) SW - #2:00 h 8,64 klux 101 W/m